El Centro, CA

12:27 PM PDT on May 28, 2017 (GMT -0700)
El Centro Naval Air Facility

Weather History for KNJK - August, 2014

Change the Weather History Date:

Friday, August 8, 2014

  Actual Average Record
Temperature  
Mean Temperature 88 °F -  
Max Temperature 104 °F 104 °F 115 °F (2012)
Min Temperature 73 °F 79 °F 73 °F (2002)
Cooling Degree Days 24    
Growing Degree Days 38 (Base 50)    
Moisture  
Dew Point 54 °F    
Average Humidity 38    
Maximum Humidity 68    
Minimum Humidity 9    
Precipitation  
Precipitation 0.00 in - - ()
Sea Level Pressure  
Sea Level Pressure 29.84 in    
Wind  
Wind Speed 6 mph (ESE)    
Max Wind Speed 12 mph    
Max Gust Speed 17 mph    
Visibility 9 miles    
Events      
Averages and records for this station are not official NWS values.
T = Trace of Precipitation, MM = Missing Value Source: NWS Daily Summary

Daily Weather History Graph

Daily Weather History Graph

Search for Another Location

Airport or City:

Trip Planner

Search our weather history database for the weather conditions in past years. The results will help you decide how hot, cold, wet, or windy it might be!

Date:

Astronomy

Aug. 08, 2014 Rise Set
Actual Time 6:01 AM PDT 7:34 PM PDT
Civil Twilight 5:34 AM PDT 8:01 PM PDT
Nautical Twilight 5:03 AM PDT 8:32 PM PDT
Astronomical Twilight 4:29 AM PDT 9:06 PM PDT
Moon 5:49 PM PDT (8/8) 3:40 AM PDT (8/8)
Length of Visible Light 14h 26m
Length of Day
13h 33m
Waxing Gibbous, 94% of the Moon is Illuminated
Aug 8
Waxing Gibbous
Aug 10
Full
Aug 17
Last Quarter
Aug 25
New
Sep 2
First Quarter

Hourly Weather History & Observations

Time (PDT) Temp. Heat Index Dew Point Humidity Pressure Visibility Wind Dir Wind Speed Gust Speed Precip Events Conditions
12:56 AM 79.0 °F - 64.0 °F 60% 29.83 in 10.0 mi East 8.1 mph - N/A   Clear
1:56 AM 75.9 °F - 64.0 °F 67% 29.83 in 10.0 mi ESE 5.8 mph - N/A   Clear
2:56 AM 73.9 °F - 63.0 °F 68% 29.83 in 10.0 mi ENE 6.9 mph - N/A   Clear
3:56 AM 73.0 °F - 62.1 °F 68% 29.84 in 10.0 mi Calm Calm - N/A   Clear
4:56 AM 73.0 °F - 59.0 °F 61% 29.84 in 10.0 mi NNE 4.6 mph - N/A   Clear
5:56 AM 73.0 °F - 59.0 °F 61% 29.86 in 10.0 mi NNW 4.6 mph - N/A   Clear
6:56 AM 73.9 °F - 59.0 °F 59% 29.88 in 10.0 mi Calm Calm - N/A   Clear
7:56 AM 80.1 °F 81.5 °F 63.0 °F 56% 29.89 in 10.0 mi Calm Calm - N/A   Clear
8:56 AM 84.0 °F 86.3 °F 66.0 °F 55% 29.90 in 10.0 mi Calm Calm - N/A   Clear
9:56 AM 87.1 °F 89.9 °F 66.9 °F 51% 29.90 in 10.0 mi Calm Calm - N/A   Clear
10:56 AM 91.0 °F 91.9 °F 63.0 °F 39% 29.90 in 6.0 mi Variable 4.6 mph - N/A   Haze
11:56 AM 95.0 °F 94.8 °F 60.1 °F 31% 29.89 in 6.0 mi ESE 10.4 mph - N/A   Haze
12:56 PM 99.0 °F 97.3 °F 55.0 °F 23% 29.87 in 6.0 mi ESE 5.8 mph - N/A   Haze
1:56 PM 100.9 °F - 51.1 °F 19% 29.84 in 6.0 mi ESE 9.2 mph - N/A   Haze
2:56 PM 102.9 °F - 44.1 °F 14% 29.82 in 6.0 mi East 11.5 mph 17.3 mph N/A   Haze
3:56 PM 104.0 °F - 42.1 °F 12% 29.79 in 6.0 mi East 10.4 mph - N/A   Haze
4:56 PM 104.0 °F - 37.0 °F 10% 29.78 in 6.0 mi East 8.1 mph - N/A   Haze
5:56 PM 102.0 °F - 34.0 °F 9% 29.77 in 6.0 mi East 11.5 mph - N/A   Haze
6:56 PM 97.0 °F - 41.0 °F 14% 29.77 in 10.0 mi East 8.1 mph - N/A   Haze
7:56 PM 91.9 °F - 46.9 °F 21% 29.78 in 10.0 mi ESE 9.2 mph - N/A   Haze
8:56 PM 87.1 °F - 46.9 °F 25% 29.81 in 8.0 mi SE 9.2 mph - N/A   Haze
9:56 PM 84.9 °F - 45.0 °F 25% 29.83 in 10.0 mi SE 8.1 mph - N/A   Haze
10:56 PM 82.0 °F - 48.9 °F 31% 29.85 in 10.0 mi South 8.1 mph - N/A   Haze
11:56 PM 80.1 °F 80.1 °F 55.0 °F 42% 29.85 in 10.0 mi SE 8.1 mph - N/A   Haze